Location: Bush Observatory
(40.2653°N, 94.3194°W)
Time: 12:24:08
(UTC-05:00)

Vanguard 1 - Visible Passes

Search period start: 23 October 2017 00:00
Search period end: 02 November 2017 00:00
Orbit: 650 x 3834 km, 34.3° (Epoch: 21 October)

Date Brightness Start Highest point End Pass type
(mag) Time Alt. Az. Time Alt. Az. Time Alt. Az.
23 Oct 13.4 01:29:55 30° E 01:29:55 30° E 01:38:57 10° E visible
23 Oct 12.3 03:42:38 72° SSW 03:43:24 72° S 04:06:51 10° ESE visible
23 Oct 13.0 05:55:22 24° W 06:09:28 56° SSW 06:31:32 10° SE visible
24 Oct 13.2 01:49:50 35° E 01:49:50 35° E 02:00:46 10° E visible
24 Oct 12.3 04:02:33 66° SW 04:04:55 70° S 04:28:20 10° ESE visible
24 Oct 13.1 06:15:17 19° W 06:30:42 49° SSW 06:52:02 10° SE visible
25 Oct 13.0 02:09:47 41° ESE 02:09:47 41° ESE 02:22:33 10° E visible
25 Oct 12.4 04:22:30 59° SW 04:26:24 66° SSW 04:49:39 10° ESE visible
25 Oct 13.3 06:35:14 14° W 06:51:49 42° SW 07:12:10 10° SSE visible
26 Oct 12.9 02:29:46 47° ESE 02:29:46 47° ESE 02:44:18 10° E visible
26 Oct 12.5 04:42:30 51° WSW 04:47:49 61° SSW 05:10:44 10° SE visible
26 Oct 13.4 06:55:16 10° W 07:12:49 35° SW 07:31:51 10° SSE visible
27 Oct 13.9 00:37:04 11° E 00:37:04 11° E 00:37:49 10° E visible
27 Oct 12.7 02:49:48 53° ESE 02:49:48 53° ESE 03:05:57 10° ESE visible
27 Oct 12.6 05:02:32 43° WSW 05:09:10 54° SSW 05:31:34 10° SE visible
28 Oct 13.8 00:57:07 15° E 00:57:07 15° E 00:59:36 10° E visible
28 Oct 12.6 03:09:52 57° SE 03:09:52 57° SE 03:27:30 10° ESE visible
28 Oct 12.7 05:22:36 35° WSW 05:30:27 47° SSW 05:52:04 10° SE visible
29 Oct 13.7 01:17:14 19° E 01:17:14 19° E 01:21:22 10° E visible
29 Oct 12.5 03:29:58 58° SSE 03:29:58 58° SSE 03:48:51 10° ESE visible
29 Oct 12.9 05:42:43 29° WSW 05:51:39 40° SSW 06:12:11 10° SSE visible
30 Oct 13.6 01:37:22 22° ESE 01:37:22 22° ESE 01:43:06 10° E visible
30 Oct 12.5 03:50:06 56° S 03:50:06 56° S 04:09:59 10° SE visible
30 Oct 13.1 06:02:51 22° WSW 06:12:47 33° SW 06:31:48 10° SSE visible
31 Oct 13.4 01:57:31 26° ESE 01:57:31 26° ESE 02:04:46 10° ESE visible
31 Oct 12.6 04:10:16 51° SSW 04:10:16 51° SSW 04:30:50 10° SE visible
31 Oct 13.3 06:23:00 16° WSW 06:33:51 26° SW 06:50:46 10° S visible
01 Nov 13.3 02:17:42 29° ESE 02:17:42 29° ESE 02:26:18 10° ESE visible
01 Nov 12.7 04:30:27 44° SSW 04:30:45 44° SSW 04:51:19 10° SE visible
01 Nov 13.5 06:43:11 11° W 06:54:54 19° SW 07:08:42 10° S visible
